Weather History for Pratica di Mare, Italy

Change the Weather History Date:

Tuesday, December 31, 2013

  Actual Average Record
Temperature  
Mean Temperature 50 °F -  
Max Temperature 54 °F 55 °F 59 °F (1997)
Min Temperature 46 °F 39 °F 24 °F (2014)
Degree Days  
Heating Degree Days 15    
Moisture  
Dew Point 45 °F    
Average Humidity 85    
Maximum Humidity 93    
Minimum Humidity 65    
Precipitation  
Precipitation 0.00 in 0.10 in - ()
Sea Level Pressure  
Sea Level Pressure 30.06 in    
Wind  
Wind Speed 10 mph ()    
Max Wind Speed 16 mph    
Max Gust Speed -    
Visibility 6.4 miles    
Events Rain    
Averages and records for this station are not official NWS values.
T = Trace of Precipitation, MM = Missing Value Source: Averaged Metar Reports

Daily Weather History Graph

Daily Weather History Graph

Search for Another Location

Airport:

Trip Planner

Search our weather history database for the weather conditions in past years. The results will help you decide how hot, cold, wet, or windy it might be!

Date:

Astronomy

Dec. 31, 2013 Rise Set
Actual Time 7:37 AM CET 4:49 PM CET
Civil Twilight 7:05 AM CET 5:21 PM CET
Nautical Twilight 6:30 AM CET 5:55 PM CET
Astronomical Twilight 5:56 AM CET 6:29 PM CET
Moon 6:11 AM CET (12/31) 4:07 PM CET (12/31)
Length of Visible Light 10h 15m
Length of Day
9h 12m
Waning Crescent, 2% of the Moon is Illuminated
Dec 31
Waning Crescent
Jan 1
New
Jan 8
First Quarter
Jan 16
Full
Jan 24
Last Quarter

Hourly Weather History & Observations

Time (CET) Temp. Windchill Dew Point Humidity Pressure Visibility Wind Dir Wind Speed Gust Speed Precip Events Conditions
12:55 AM 46.4 °F 40.4 °F 44.6 °F 93% 30.06 in 6.2 mi NNE 13.8 mph - N/A   Mostly Cloudy
1:00 AM 47 °F - 45 °F 91% 30.09 in 7 mi NNE 13.8 mph - - Rain Light Rain
1:55 AM 46.4 °F 39.8 °F 44.6 °F 93% 30.06 in 6.2 mi NNE 16.1 mph - N/A   Mostly Cloudy
2:55 AM 46.4 °F 40.4 °F 44.6 °F 93% 30.06 in 6.2 mi NNE 13.8 mph - N/A   Mostly Cloudy
3:55 AM 46.4 °F 40.4 °F 44.6 °F 93% 30.06 in 6.2 mi NNE 13.8 mph - N/A   Mostly Cloudy
4:00 AM 47 °F - 45 °F 89% 30.07 in 7 mi NNE 13.8 mph - -   Overcast
4:55 AM 46.4 °F 40.1 °F 44.6 °F 93% 30.06 in 6.2 mi NNE 15.0 mph - N/A   Mostly Cloudy
5:55 AM 46.4 °F 41.1 °F 42.8 °F 87% 30.06 in 6.2 mi NNE 11.5 mph - N/A   Mostly Cloudy
6:55 AM 46.4 °F 41.5 °F 42.8 °F 87% 30.06 in 6.2 mi NNE 10.4 mph - N/A   Partly Cloudy
7:00 AM 47 °F - 42 °F 78% 30.07 in 9 mi NNE 10.4 mph - -   Scattered Clouds
7:55 AM 46.4 °F 41.1 °F 42.8 °F 87% 30.06 in 6.2 mi NNE 11.5 mph - N/A   Scattered Clouds
8:55 AM 48.2 °F - 41.0 °F 76% 30.06 in 6.2 mi NNE 11.5 mph - N/A   Partly Cloudy
9:55 AM 48.2 °F - 42.8 °F 82% 30.09 in 6.2 mi NNE 10.4 mph - N/A   Partly Cloudy
10:00 AM 49 °F - 42 °F 69% 30.10 in 25 mi NNE 10.4 mph - -   Scattered Clouds
10:55 AM 50.0 °F - 42.8 °F 76% 30.09 in 6.2 mi NNE 10.4 mph - N/A   Mostly Cloudy
11:55 AM 50.0 °F - 44.6 °F 82% 30.09 in 6.2 mi NNE 10.4 mph - N/A   Mostly Cloudy
12:55 PM 51.8 °F - 44.6 °F 76% 30.06 in 6.2 mi NNE 10.4 mph - N/A   Mostly Cloudy
1:00 PM 51 °F - 45 °F 72% 30.08 in 7 mi NNE 10.4 mph - -   Scattered Clouds
1:55 PM 53.6 °F - 46.4 °F 77% 30.06 in 6.2 mi NNE 6.9 mph - N/A   Scattered Clouds
2:55 PM 53.6 °F - 46.4 °F 77% 30.04 in 6.2 mi North 6.9 mph - N/A   Partly Cloudy
3:55 PM 53.6 °F - 46.4 °F 77% 30.04 in 6.2 mi NNW 4.6 mph - N/A   Scattered Clouds
4:00 PM 54 °F - 46 °F 65% 30.06 in 7 mi NNW 4.6 mph - -   Scattered Clouds
4:55 PM 50.0 °F - 46.4 °F 87% 30.04 in 6.2 mi NNW 3.5 mph - N/A   Scattered Clouds
5:55 PM 48.2 °F - 46.4 °F 93% 30.04 in 6.2 mi NNE 4.6 mph - N/A   Scattered Clouds
6:55 PM 48.2 °F - 46.4 °F 93% 30.06 in 6.2 mi North 2.3 mph - N/A   Scattered Clouds
7:00 PM 48 °F - 46 °F 89% 30.07 in 7 mi North 2.3 mph - -   Scattered Clouds
7:55 PM 46.4 °F 44.3 °F 44.6 °F 93% 30.06 in 6.2 mi NNE 4.6 mph - N/A   Scattered Clouds
8:55 PM 48.2 °F - 44.6 °F 87% 30.06 in 6.2 mi North 5.8 mph - N/A   Scattered Clouds
9:55 PM 46.4 °F 42.9 °F 44.6 °F 93% 30.06 in 6.2 mi NNW 6.9 mph - N/A   Scattered Clouds
10:00 PM 47 °F - 45 °F 91% 30.08 in 6 mi NNW 6.9 mph - -   Scattered Clouds
10:55 PM 48.2 °F - 46.4 °F 93% 30.06 in 6.2 mi NNE 6.9 mph - N/A   Scattered Clouds
11:55 PM 46.4 °F 41.9 °F 44.6 °F 93% 30.04 in 6.2 mi NNE 9.2 mph - N/A   Partly Cloudy